FW8575 Weather Reports


Display with metric or nautical units.
time (UTC)temp
F
wind
direction
speed
MPH
gust
MPH
rain 1hr
in
rain 24hr
in
rain mn
in
humidity
%
barometer
mb
20260507045006 46 294 0.0 5.0 0.00 0.00 0.00 67 1013.1
20260507044005 46 259 1.0 3.0 0.00 0.00 0.00 66 1013.0
20260507043505 46 252 1.0 5.0 0.00 0.00 0.00 66 1013.0
20260507043005 46 282 1.0 3.0 0.00 0.00 0.00 66 1013.0
20260507042505 46 282 3.0 6.0 0.00 0.00 0.00 66 1012.9
20260507042005 46 271 1.0 6.0 0.00 0.00 0.00 66 1012.9
20260507041505 46 274 2.0 10.0 0.00 0.00 0.00 67 1012.9
20260507041006 46 239 2.0 7.0 0.00 0.00 0.00 68 1012.9
20260507040005 46 260 1.0 7.0 0.00 0.00 0.00 69 1012.9
20260507035505 45 283 1.0 5.0 0.00 0.00 0.00 72 1012.9
20260507035005 45 309 0.0 1.0 0.00 0.00 0.00 73 1012.9
20260507034505 45 309 0.0 2.0 0.00 0.00 0.00 72 1012.9
20260507034005 46 311 0.0 0.0 0.00 0.00 0.00 72 1012.8
20260507033505 46 311 0.0 0.0 0.00 0.00 0.00 72 1012.8
20260507033004 46 311 0.0 0.0 0.00 0.00 0.00 72 1012.9
20260507032505 46 311 0.0 0.0 0.00 0.00 0.00 72 1012.9
20260507032005 47 311 0.0 1.0 0.00 0.00 0.00 72 1012.9
20260507031505 47 311 0.0 0.0 0.00 0.00 0.00 71 1012.9
20260507031005 47 311 0.0 0.0 0.00 0.00 0.00 70 1012.9
20260507030505 47 311 0.0 2.0 0.00 0.00 0.00 70 1012.9
20260507030005 48 312 0.0 2.0 0.00 0.00 0.00 70 1012.9
20260507025504 48 312 0.0 0.0 0.00 0.00 0.00 69 1012.9
20260507025005 48 312 0.0 0.0 0.00 0.00 0.00 69 1012.9
20260507024005 49 312 0.0 0.0 0.00 0.00 0.00 68 1012.9
20260507023505 49 312 0.0 0.0 0.00 0.00 0.00 67 1012.9
20260507023005 49 312 0.0 0.0 0.00 0.00 0.00 68 1012.9
20260507022504 49 312 0.0 0.0 0.00 0.00 0.00 68 1012.9
20260507022005 49 312 0.0 0.0 0.00 0.00 0.00 69 1012.9
20260507021504 50 312 0.0 0.0 0.00 0.00 0.00 68 1012.9
20260507021005 50 312 0.0 0.0 0.00 0.00 0.00 68 1012.9
20260507020505 50 312 0.0 0.0 0.00 0.00 0.00 67 1012.9
20260507020005 50 312 0.0 0.0 0.00 0.00 0.00 66 1012.8
20260507015005 50 312 0.0 0.0 0.00 0.00 0.00 65 1012.8
20260507014004 51 312 0.0 0.0 0.00 0.00 0.00 64 1012.6
20260507013505 51 312 0.0 0.0 0.00 0.00 0.00 63 1012.6
20260507013004 51 312 0.0 0.0 0.00 0.01 0.00 61 1012.5
20260507012505 51 312 0.0 0.0 0.00 0.01 0.00 60 1012.5
20260507011505 51 312 0.0 0.0 0.00 0.01 0.00 57 1012.5
20260507011005 51 312 0.0 0.0 0.00 0.01 0.00 55 1012.4
20260507010505 52 312 0.0 0.0 0.00 0.01 0.00 53 1012.4
20260507010005 52 312 0.0 0.0 0.00 0.01 0.00 52 1012.3
20260507005504 52 312 0.0 0.0 0.00 0.01 0.00 51 1012.3
20260507005005 52 312 0.0 0.0 0.00 0.01 0.00 51 1012.3
20260507004005 52 312 0.0 0.0 0.00 0.01 0.00 49 1012.1
20260507003504 53 312 0.0 0.0 0.00 0.01 0.00 49 1012.1
20260507003005 53 312 0.0 0.0 0.00 0.01 0.00 48 1012.2
20260507002505 53 312 0.0 0.0 0.00 0.01 0.00 47 1012.1
20260507002005 53 312 0.0 0.0 0.00 0.01 0.00 48 1012.0
20260507001504 53 312 0.0 3.0 0.00 0.01 0.00 47 1012.0
20260507001005 53 313 0.0 2.0 0.00 0.01 0.00 46 1012.1
20260507000505 53 313 1.0 2.0 0.00 0.02 0.00 46 1012.1
20260507000005 53 313 2.0 5.0 0.00 0.02 0.00 45 1012.2
20260506235504 53 291 2.0 6.0 0.00 0.02 0.00 45 1012.1
20260506234505 53 284 2.0 5.0 0.00 0.02 0.00 45 1012.2
20260506234005 53 294 2.0 6.0 0.00 0.02 0.00 43 1012.1
20260506233504 53 301 1.0 5.0 0.00 0.02 0.00 43 1012.1
20260506233005 54 307 5.0 9.0 0.00 0.02 0.00 42 1012.3
20260506232504 54 285 4.0 7.0 0.00 0.02 0.00 43 1012.3
20260506232004 54 283 7.0 12.0 0.00 0.02 0.00 42 1012.3
20260506230505 54 282 7.0 12.0 0.00 0.02 0.00 40 1012.2
20260506230004 55 296 6.0 10.0 0.00 0.02 0.00 42 1012.2
20260506225505 55 290 6.0 10.0 0.00 0.02 0.00 41 1012.3
20260506225004 55 316 5.0 9.0 0.00 0.02 0.00 41 1012.3
20260506224504 55 287 6.0 9.0 0.00 0.02 0.00 40 1012.2
20260506224004 55 305 6.0 10.0 0.00 0.02 0.00 40 1012.2
20260506223506 55 298 6.0 13.0 0.00 0.02 0.00 41 1012.1
20260506223004 55 274 4.0 7.0 0.00 0.02 0.00 42 1012.0
20260506222004 55 287 6.0 10.0 0.00 0.02 0.00 43 1012.0
20260506221505 55 292 7.0 13.0 0.00 0.02 0.00 42 1012.0
20260506221005 55 275 7.0 12.0 0.00 0.02 0.00 43 1011.9
20260506220504 55 298 5.0 12.0 0.00 0.02 0.00 43 1012.0
20260506215504 55 277 7.0 16.0 0.00 0.02 0.00 43 1012.0
20260506215005 56 296 7.0 13.0 0.00 0.02 0.00 42 1012.0
20260506214504 56 291 6.0 13.0 0.00 0.02 0.00 43 1011.9
20260506212504 57 303 8.0 13.0 0.00 0.04 0.00 41 1011.9
20260506212004 56 279 5.0 12.0 0.00 0.04 0.00 44 1012.0
20260506211504 55 299 4.0 8.0 0.00 0.04 0.00 43 1012.0
20260506211005 56 296 5.0 10.0 0.00 0.05 0.00 42 1012.1
20260506210504 56 282 7.0 14.0 0.00 0.05 0.00 42 1012.3
20260506210004 56 245 6.0 13.0 0.00 0.05 0.00 45 1012.2
20260506205504 55 267 5.0 9.0 0.00 0.05 0.00 44 1012.1
20260506205005 55 276 7.0 12.0 0.00 0.05 0.00 42 1012.1
20260506204505 55 267 6.0 10.0 0.00 0.05 0.00 43 1012.1
20260506203504 56 274 7.0 12.0 0.00 0.05 0.00 43 1012.0
20260506203005 56 247 6.0 14.0 0.00 0.05 0.00 42 1012.0
20260506202005 55 267 7.0 14.0 0.00 0.05 0.00 42 1012.1
20260506201504 55 252 6.0 12.0 0.00 0.05 0.00 43 1012.1
20260506201004 55 275 7.0 14.0 0.00 0.05 0.00 41 1012.1
20260506200504 56 262 6.0 9.0 0.00 0.05 0.00 44 1012.2
20260506200004 55 301 4.0 13.0 0.00 0.05 0.00 43 1012.2
20260506195504 55 306 6.0 10.0 0.00 0.05 0.00 44 1012.3
20260506195004 55 226 5.0 9.0 0.00 0.05 0.00 45 1012.3
20260506194504 55 237 4.0 12.0 0.00 0.05 0.00 42 1012.3
20260506194004 55 260 6.0 12.0 0.00 0.05 0.00 42 1012.4
20260506193504 55 288 3.0 8.0 0.00 0.05 0.00 43 1012.4
20260506193004 55 240 5.0 10.0 0.00 0.05 0.00 43 1012.4
20260506191504 55 270 7.0 12.0 0.00 0.05 0.00 42 1012.4
20260506191005 55 219 6.0 14.0 0.00 0.05 0.00 42 1012.4
20260506190504 55 290 3.0 12.0 0.00 0.05 0.00 43 1012.5
20260506190004 55 279 8.0 13.0 0.00 0.05 0.00 43 1012.5
20260506185504 54 271 2.0 10.0 0.00 0.05 0.00 43 1012.5
20260506185004 54 269 7.0 16.0 0.00 0.05 0.00 43 1012.6
20260506184504 54 283 5.0 15.0 0.00 0.05 0.00 44 1012.5
20260506184004 53 271 6.0 12.0 0.00 0.05 0.00 42 1012.6
20260506183504 53 214 4.0 13.0 0.00 0.05 0.00 42 1012.7
20260506182504 53 275 8.0 13.0 0.00 0.05 0.00 44 1012.9
20260506182004 53 270 7.0 12.0 0.00 0.05 0.00 43 1012.8
20260506181004 53 332 5.0 9.0 0.00 0.05 0.00 43 1012.7
20260506180504 53 294 3.0 6.0 0.00 0.05 0.00 41 1012.7
20260506180005 53 320 4.0 9.0 0.00 0.05 0.00 43 1012.7
20260506175503 53 263 3.0 12.0 0.00 0.05 0.00 43 1012.6
20260506175004 53 260 4.0 9.0 0.00 0.05 0.00 44 1012.5
20260506174503 53 275 6.0 9.0 0.00 0.05 0.00 42 1012.5
20260506174004 53 272 5.0 8.0 0.00 0.05 0.00 41 1012.5
20260506173504 53 295 4.0 8.0 0.00 0.05 0.00 42 1012.5
20260506173004 53 291 6.0 10.0 0.00 0.05 0.00 44 1012.6
20260506172503 53 280 6.0 12.0 0.00 0.05 0.00 42 1012.5
20260506172004 53 294 7.0 14.0 0.00 0.05 0.00 42 1012.5
20260506171504 53 285 4.0 12.0 0.00 0.05 0.00 44 1012.5
20260506171004 53 317 9.0 13.0 0.00 0.05 0.00 41 1012.5
20260506170504 53 291 7.0 13.0 0.00 0.05 0.00 42 1012.5
20260506170004 53 325 3.0 8.0 0.00 0.05 0.00 44 1012.5
20260506165504 52 326 3.0 9.0 0.00 0.05 0.00 42 1012.6
20260506164503 53 292 7.0 12.0 0.00 0.05 0.00 42 1012.7
20260506164004 53 329 4.0 8.0 0.00 0.05 0.00 42 1012.6
20260506163504 53 303 3.0 10.0 0.00 0.05 0.00 42 1012.8
20260506162507 52 285 4.0 13.0 0.00 0.05 0.00 43 1012.7
20260506162006 53 283 3.0 13.0 0.00 0.05 0.00 44 1012.7
20260506161506 53 308 2.0 9.0 0.00 0.05 0.00 43 1012.7
20260506161006 53 312 3.0 12.0 0.00 0.05 0.00 43 1012.9
20260506160006 52 300 3.0 12.0 0.00 0.05 0.00 43 1012.9
20260506155007 53 340 7.0 12.0 0.00 0.05 0.00 42 1012.9
20260506154507 52 356 3.0 10.0 0.00 0.05 0.00 43 1012.8
20260506154007 52 297 9.0 12.0 0.00 0.05 0.00 42 1012.7
20260506153506 53 290 5.0 12.0 0.00 0.05 0.00 44 1012.6
20260506153006 53 305 7.0 14.0 0.00 0.05 0.00 42 1012.5
20260506152506 53 290 5.0 10.0 0.00 0.05 0.00 44 1012.6
20260506152006 53 345 6.0 10.0 0.00 0.05 0.00 45 1012.5
20260506151006 52 308 7.0 12.0 0.00 0.05 0.00 44 1012.6
20260506150506 52 336 5.0 10.0 0.00 0.05 0.00 44 1012.5
20260506150006 52 295 6.0 10.0 0.00 0.05 0.00 44 1012.5
20260506145506 52 346 5.0 10.0 0.00 0.05 0.00 46 1012.5
20260506144506 52 313 6.0 14.0 0.00 0.05 0.00 46 1012.2
20260506143506 51 260 7.0 12.0 0.00 0.05 0.00 44 1012.0
20260506143006 51 306 5.0 10.0 0.00 0.05 0.00 47 1012.1
20260506142506 51 319 6.0 12.0 0.00 0.05 0.00 45 1012.0
20260506142007 52 303 5.0 9.0 0.00 0.05 0.00 46 1012.0
20260506141006 51 313 4.0 9.0 0.00 0.05 0.00 47 1011.9
20260506140506 51 19 6.0 12.0 0.00 0.05 0.00 47 1011.9
20260506140006 51 337 5.0 12.0 0.00 0.05 0.00 46 1011.9
20260506135505 51 327 6.0 12.0 0.00 0.05 0.00 46 1011.9
20260506135006 51 349 4.0 9.0 0.00 0.05 0.00 49 1012.0
20260506134006 50 327 2.0 9.0 0.00 0.05 0.00 51 1011.9
20260506133506 50 348 7.0 13.0 0.00 0.05 0.00 52 1011.8
20260506133007 49 332 4.0 9.0 0.00 0.05 0.00 53 1011.6
20260506132505 49 314 6.0 9.0 0.00 0.05 0.00 53 1011.7
20260506132006 49 323 4.0 12.0 0.00 0.05 0.00 53 1011.4
20260506131506 49 297 2.0 9.0 0.00 0.05 0.00 55 1011.4
20260506131006 48 6 4.0 9.0 0.00 0.05 0.00 55 1011.3
20260506130506 48 298 3.0 7.0 0.00 0.05 0.00 57 1011.3
20260506125006 47 6 5.0 12.0 0.00 0.05 0.00 57 1011.1
20260506124507 47 321 6.0 13.0 0.00 0.05 0.00 59 1011.2
20260506124006 47 307 5.0 8.0 0.00 0.05 0.00 60 1011.2
20260506123506 47 12 6.0 13.0 0.00 0.05 0.00 60 1011.0
20260506123006 46 334 5.0 9.0 0.00 0.05 0.00 62 1011.2
20260506122506 46 306 5.0 12.0 0.00 0.05 0.00 63 1011.1
20260506122006 46 302 5.0 10.0 0.00 0.05 0.00 64 1011.1
20260506121506 46 318 3.0 9.0 0.00 0.05 0.00 67 1010.9
20260506121006 45 293 5.0 8.0 0.00 0.05 0.00 68 1010.9
20260506120505 45 293 1.0 8.0 0.00 0.05 0.00 69 1010.8
20260506120005 45 306 3.0 9.0 0.00 0.05 0.00 69 1010.8
20260506115006 44 314 2.0 5.0 0.00 0.05 0.00 72 1010.8
20260506114506 44 311 2.0 6.0 0.00 0.05 0.00 73 1010.7
20260506114005 44 298 4.0 6.0 0.00 0.05 0.00 74 1010.5
20260506113506 44 304 1.0 3.0 0.00 0.05 0.00 74 1010.3
20260506113006 43 306 1.0 5.0 0.00 0.05 0.00 74 1010.3
20260506112506 43 315 0.0 0.0 0.00 0.05 0.00 74 1010.2
20260506112006 43 316 0.0 0.0 0.00 0.05 0.00 74 1010.2
20260506111505 43 316 0.0 3.0 0.00 0.05 0.00 74 1010.0
20260506111006 43 311 1.0 3.0 0.00 0.05 0.00 74 1009.9
20260506110505 44 334 1.0 3.0 0.00 0.05 0.00 74 1009.8
20260506110006 44 330 2.0 5.0 0.00 0.05 0.00 73 1009.6
20260506105506 44 355 2.0 5.0 0.00 0.05 0.00 73 1009.5
20260506105005 44 310 0.0 5.0 0.00 0.05 0.00 74 1009.6
20260506104006 44 292 2.0 8.0 0.00 0.05 0.00 74 1009.3
20260506103506 45 311 2.0 5.0 0.00 0.05 0.00 74 1009.5
20260506103006 45 311 3.0 6.0 0.00 0.05 0.00 74 1009.2
20260506102506 45 295 3.0 6.0 0.00 0.05 0.00 74 1009.2
20260506102006 45 301 5.0 8.0 0.00 0.05 0.00 75 1009.3
20260506100506 45 309 1.0 7.0 0.00 0.05 0.00 78 1009.1
20260506100005 45 316 2.0 7.0 0.00 0.05 0.00 78 1009.1
20260506095505 45 311 3.0 6.0 0.00 0.05 0.00 80 1009.1
20260506095006 45 292 2.0 5.0 0.00 0.05 0.00 81 1009.1
20260506094506 45 302 1.0 3.0 0.00 0.05 0.00 82 1009.1
20260506094005 45 302 2.0 5.0 0.00 0.05 0.00 83 1009.1
20260506093506 45 305 0.0 0.0 0.00 0.05 0.00 84 1009.0
20260506092505 45 302 2.0 5.0 0.00 0.05 0.00 85 1009.0
20260506092006 45 290 1.0 3.0 0.00 0.05 0.00 86 1009.0
20260506091506 45 290 1.0 3.0 0.00 0.05 0.00 86 1009.1
20260506091005 45 290 0.0 0.0 0.00 0.05 0.00 87 1008.8
20260506085505 45 290 0.0 0.0 0.00 0.05 0.00 87 1008.6
20260506085006 45 290 0.0 0.0 0.00 0.05 0.00 87 1008.4
20260506084505 45 290 0.0 0.0 0.00 0.05 0.00 86 1008.5
20260506084005 45 290 0.0 0.0 0.00 0.05 0.00 86 1008.5
20260506083005 45 290 0.0 0.0 0.00 0.05 0.00 87 1008.7
20260506082505 45 290 0.0 0.0 0.00 0.05 0.00 87 1008.5
20260506082005 45 290 0.0 0.0 0.00 0.05 0.00 87 1008.4
20260506081505 45 290 0.0 0.0 0.00 0.05 0.00 87 1008.5
20260506081006 45 290 0.0 0.0 0.00 0.05 0.00 87 1008.4
20260506080505 45 290 0.0 0.0 0.00 0.05 0.00 87 1008.3
20260506073505 45 281 0.0 0.0 0.00 0.05 0.00 88 1008.3
20260506073005 45 281 0.0 0.0 0.00 0.05 0.00 88 1008.5
20260506072505 45 281 0.0 1.0 0.00 0.05 0.00 88 1008.5
20260506072005 45 281 0.0 0.0 0.00 0.05 0.00 88 1008.1
20260506071505 45 281 1.0 3.0 0.00 0.05 0.00 88 1008.2
20260506071005 44 280 0.0 0.0 0.00 0.05 0.00 88 1008.3
20260506062505 44 280 0.0 0.0 0.00 0.06 0.00 88 1008.4
20260506062005 44 280 0.0 0.0 0.00 0.06 0.00 88 1008.5
20260506061505 44 280 0.0 0.0 0.00 0.07 0.00 88 1008.7
20260506060505 44 280 0.0 0.0 0.00 0.08 0.00 88 1008.5
20260506051005 45 281 0.0 0.0 0.00 0.19 0.00 88 1008.9
20260506050505 44 280 0.0 0.0 0.00 0.19 0.00 88 1008.9